This demonstration page uses our WeatherBlox Daily Observations layout. Learn more.

Left ArrowRight Arrow

Hourly Observations for August 22, 2020

Temp ( °F °C ) Dew Point ( °F °C ) Humidity (%) Winds ( mph kmh ) Pressure ( in mb ) Visibility ( mi km ) Precip ( " mm )
12:15 am 00:15 Clear 59 15 58 14.7 98 98 Calm 29.95 1014 10 16 0.00 0.00
12:35 am 00:35 Clear 57 14 56 13.6 97 97 Calm 29.96 1014 10 16 0.00 0.00
12:55 am 00:55 Clear 57 14.1 57 13.9 99 99 Calm 29.96 1014 10 16 0.00 0.00
1:15 am 01:15 Clear 58 14.3 58 14.2 99 99 Calm 29.96 1014 10 16 0.00 0.00
1:35 am 01:35 Clear 58 14.2 57 14 99 99 Calm 29.96 1014 10 16 0.00 0.00
1:55 am 01:55 Clear 57 13.9 56 13.6 98 98 Calm 29.96 1014 7 11 0.00 0.00
2:15 am 02:15 Clear 57 13.7 56 13.5 99 99 Calm 29.96 1014 10 16 0.00 0.00
2:35 am 02:35 Clear 56 13.5 56 13.3 99 99 Calm 29.96 1015 10 16 0.00 0.00
2:55 am 02:55 Clear 56 13.3 56 13.1 99 99 Calm 29.96 1015 10 16 0.00 0.00
3:15 am 03:15 Clear 56 13.2 56 13.1 99 99 Calm 29.96 1015 10 16 0.00 0.00
3:35 am 03:35 Clear 56 13.4 56 13.3 99 99 Calm 29.96 1015 10 16 0.00 0.00
3:55 am 03:55 Clear 54 12.3 54 12.1 99 99 Calm 29.96 1015 10 16 0.00 0.00
4:15 am 04:15 Clear 55 12.5 54 12.3 99 99 Calm 29.96 1015 10 16 0.00 0.00
4:35 am 04:35 Mostly Cloudy with Fog 54 12 53 11.8 99 99 Calm 29.95 1014 1 1 0.00 0.00
4:55 am 04:55 Mostly Cloudy with Mist and Fog 55 12.8 55 12.8 100 100 Calm 29.95 1014 1 2 0.00 0.00
5:15 am 05:15 Clear 54 12 54 12 100 100 Calm 29.96 1015 10 16 0.00 0.00
5:35 am 05:35 Clear 54 12.1 54 12 99 99 Calm 29.96 1015 10 16 0.00 0.00
5:55 am 05:55 Clear 54 12.2 54 12.1 99 99 Calm 29.96 1015 10 16 0.00 0.00
6:15 am 06:15 Clear 54 12.1 54 12 99 99 Calm 29.97 1015 10 16 0.00 0.00
6:35 am 06:35 Clear 53 11.8 53 11.5 98 98 Calm 29.97 1015 10 16 0.00 0.00
6:55 am 06:55 Clear 54 12 54 12 100 100 Calm 29.98 1015 10 16 0.00 0.00
7:15 am 07:15 Sunny 54 12 53 11.8 99 99 Calm 29.98 1015 7 11 0.00 0.00
7:35 am 07:35 Mostly Cloudy with Mist and Fog 54 12.1 54 12 99 99 Calm 29.99 1016 1 2 0.00 0.00
7:55 am 07:55 Sunny 56 13.3 56 13.2 99 99 Calm 29.99 1016 7 11 0.00 0.00
8:15 am 08:15 Sunny 59 15 58 14.5 97 97 Calm 29.99 1016 10 16 0.00 0.00
8:35 am 08:35 Sunny 61 16.2 60 15.5 96 96 N 3 6 29.99 1016 10 16 0.00 0.00
8:55 am 08:55 Sunny 64 17.9 62 16.4 91 91 Calm 29.98 1015 10 16 0.00 0.00
9:15 am 09:15 Sunny 66 19.1 63 17.1 88 88 Calm 29.98 1015 10 16 0.00 0.00
9:35 am 09:35 Sunny 68 20.2 64 17.6 85 85 Calm 29.99 1015 10 16 0.00 0.00
9:55 am 09:55 Sunny 71 21.7 65 18.1 80 80 Calm 29.99 1016 10 16 0.00 0.00
10:15 am 10:15 Sunny 73 23 65 18.5 76 76 Calm 29.99 1015 10 16 0.00 0.00
10:35 am 10:35 Sunny 74 23.6 65 18.1 71 71 Calm 29.98 1015 10 16 0.00 0.00
10:55 am 10:55 Sunny 76 24.5 65 18.3 68 68 Calm 29.98 1015 10 16 0.00 0.00
11:15 am 11:15 Sunny 77 24.9 64 17.5 64 64 Calm 29.98 1015 10 16 0.00 0.00
11:35 am 11:35 Sunny 76 24.7 62 16.8 62 62 Calm 29.99 1016 10 16 0.00 0.00
11:55 am 11:55 Sunny 77 25 63 17 61 61 Calm 29.98 1015 10 16 0.00 0.00
12:15 pm 12:15 Sunny 77 25.2 63 17.3 62 62 Calm 29.98 1015 10 16 0.00 0.00
12:35 pm 12:35 Sunny 78 25.4 64 17.6 62 62 Calm 29.97 1015 10 16 0.00 0.00
12:55 pm 12:55 Sunny 78 25.6 62 16.7 58 58 Calm 29.95 1014 10 16 0.00 0.00
1:15 pm 13:15 Sunny 78 25.7 60 15.3 53 53 Calm 29.95 1014 10 16 0.00 0.00
1:35 pm 13:35 Sunny 79 26 62 16.9 57 57 Calm 29.94 1014 10 16 0.00 0.00
1:55 pm 13:55 Sunny 79 26.3 61 16 53 53 Calm 29.93 1013 10 16 0.00 0.00
2:15 pm 14:15 Sunny 79 26.3 60 15.6 52 52 S 3 6 29.93 1013 10 16 0.00 0.00
2:35 pm 14:35 Sunny 81 27 60 15.6 50 50 Calm 29.92 1013 10 16 0.00 0.00
2:55 pm 14:55 Sunny 81 27.1 62 16.6 53 53 Calm 29.93 1014 10 16 0.00 0.00
3:15 pm 15:15 Sunny 81 27.2 62 16.4 52 52 Calm 29.93 1014 10 16 0.00 0.00
3:35 pm 15:35 Sunny 81 27.1 63 17.3 55 55 W 5 7 29.93 1014 10 16 0.00 0.00
3:55 pm 15:55 Sunny 81 27.2 65 18.1 58 58 N 6 9 29.92 1013 10 16 0.00 0.00
4:15 pm 16:15 Sunny 81 27.3 64 17.6 55 55 WNW 5 7 29.92 1013 10 16 0.00 0.00
4:35 pm 16:35 Sunny 81 27.2 62 16.7 53 53 W 5 7 29.91 1013 10 16 0.00 0.00
4:55 pm 16:55 Sunny 81 27.3 62 16.6 52 52 Calm 29.91 1013 10 16 0.00 0.00
5:15 pm 17:15 Sunny 81 27.2 63 17.3 55 55 Calm 29.92 1013 10 16 0.00 0.00
5:35 pm 17:35 Sunny 81 27.2 64 17.9 57 57 N 5 7 29.92 1013 10 16 0.00 0.00
5:55 pm 17:55 Sunny 81 27.1 64 17.9 57 57 NW 5 7 29.92 1013 10 16 0.00 0.00
6:15 pm 18:15 Sunny 80 26.5 66 18.8 63 63 NNW 3 6 29.93 1013 10 16 0.00 0.00
6:35 pm 18:35 Sunny 80 26.6 64 18 59 59 N 3 6 29.92 1013 10 16 0.00 0.00
6:55 pm 18:55 Sunny 79 26.2 65 18.5 63 63 Calm 29.93 1013 10 16 0.00 0.00
7:15 pm 19:15 Sunny 78 25.7 67 19.2 67 67 Calm 29.93 1013 10 16 0.00 0.00
7:35 pm 19:35 Sunny 77 25 68 19.8 73 73 NE 3 6 29.93 1014 10 16 0.00 0.00
7:55 pm 19:55 Sunny 75 24 68 20.2 79 79 N 3 6 29.93 1014 10 16 0.00 0.00
8:15 pm 20:15 Sunny 74 23.4 67 19.5 79 79 Calm 29.94 1014 10 16 0.00 0.00
8:35 pm 20:35 Clear 70 21.2 66 19.1 88 88 Calm 29.95 1014 10 16 0.00 0.00
8:55 pm 20:55 Clear 68 20.2 65 18.5 90 90 Calm 29.96 1014 10 16 0.00 0.00
9:15 pm 21:15 Clear 68 20.1 65 18.2 89 89 Calm 29.97 1015 10 16 0.00 0.00
9:35 pm 21:35 Clear 67 19.5 64 18 91 91 Calm 29.97 1015 10 16 0.00 0.00
9:55 pm 21:55 Clear 66 18.8 64 17.9 95 95 Calm 29.97 1015 10 16 0.00 0.00
10:15 pm 22:15 Clear 65 18.3 64 17.8 97 97 Calm 29.97 1015 10 16 0.00 0.00
10:35 pm 22:35 Clear 65 18.6 64 18 96 96 Calm 29.97 1015 10 16 0.00 0.00
10:55 pm 22:55 Clear 64 17.6 62 16.9 96 96 Calm 29.97 1015 10 16 0.00 0.00
11:15 pm 23:15 Clear 63 17.3 62 16.7 96 96 Calm 29.99 1015 10 16 0.00 0.00
11:35 pm 23:35 Clear 64 17.5 63 17.1 98 98 SE 3 6 29.98 1015 10 16 0.00 0.00
11:55 pm 23:55 Clear 63 17 62 16.7 98 98 Calm 29.99 1015 10 16 0.00 0.00

Powered by AerisWeather